Miscellaneous Local Product
Issued by NWS Hastings, NE

Home | Current Version | Previous Version | Text Only | Print | Product List | Glossary Off
Versions: 1 2 3 4 5 6 7 8 9 10 11 12 13 14 15 16 17 18 19 20 21 22 23 24 25 26 27 28 29 30 31 32 33 34 35 36 37 38 39 40 41 42 43 44 45 46 47 48 49 50

000
AXUS43 KGID 231002
MISGRI

GID CWA HOURLY WEATHER ROUNDUP
NATIONAL WEATHER SERVICE HASTINGS NE
500 AM CDT SAT MAY 23 2015

NOTE: "FAIR" INDICATES FEW OR NO CLOUDS BELOW 12,000 FEET WITH NO
SIGNIFICANT WEATHER AND/OR OBSTRUCTIONS TO VISIBILITY.

...SOUTH CENTRAL NEBRASKA...

CITY           SKY/WX    TMP DP  RH WIND       PRES   REMARKS
GRAND ISLAND   CLOUDY    52  49  89 SE8       30.14F
HASTINGS       CLOUDY    53  50  89 SE8       30.13F
KEARNEY        CLOUDY    52  50  93 SE10      30.12S
ORD            CLOUDY    52  50  93 SE8       30.11S
YORK           CLOUDY    55  48  76 S9        30.16F
AURORA         CLOUDY    53  50  90 SE8       30.15S
LEXINGTON      CLOUDY    54  53  97 SE9       30.11R FOG
HOLDREGE       FOG       52  51  96 SE10      30.09F VSB 1/2
HEBRON         CLOUDY    54  50  86 S8        30.16F

...NEBRASKA PANHANDLE...

CITY           SKY/WX    TMP DP  RH WIND       PRES   REMARKS
CHADRON        CLOUDY    47  45  93 CALM      30.05F
ALLIANCE       FOG       47  46  97 S8        30.05R VSB 3/4
SCOTTSBLUFF    CLOUDY    46  45  96 E8        30.04F FOG
SIDNEY         FOG       48  48 100 CALM      30.05S VSB 1/4

...WESTERN AND NORTH CENTRAL NEBRASKA...

CITY           SKY/WX    TMP DP  RH WIND       PRES   REMARKS
VALENTINE      LGT RAIN  48  47  96 E7        30.10F
AINSWORTH      DRIZZLE   51  51 100 SE6       30.10S
ONEILL         CLOUDY    53  50  91 SE8       30.14F
BROKEN BOW       N/A     53  52  96 SE10      30.10S FOG
IMPERIAL       LGT RAIN  52  51  97 E17       30.00F
NORTH PLATTE   LGT RAIN  53  51  93 SE15      30.02F
MCCOOK         LGT RAIN  53  53 100 E8        30.08F

...EASTERN NEBRASKA...

CITY           SKY/WX    TMP DP  RH WIND       PRES   REMARKS
NORFOLK        CLOUDY    54  49  83 E5        30.17S
SO SIOUX CITY  CLOUDY    55  50  83 SE7       30.20R
TEKAMAH        CLOUDY    57  51  80 SE7       30.19S
COLUMBUS       CLOUDY    55  43  62 SE6       30.20S
ALBION         CLOUDY    53  47  82 SE7       30.15F
OMAHA EPPLEY   CLOUDY    59  50  72 S5        30.20R
OFFUTT AFB     MOCLDY    55  50  82 SE1       30.19S
MILLARD        CLOUDY    58  51  76 CALM      30.20R
LINCOLN        CLOUDY    57  49  74 SE9       30.19S
NEBRASKA CITY  LGT RAIN  55  52  89 CALM      30.19S
BEATRICE       CLOUDY    56  51  83 S6        30.17S
FALLS CITY     CLOUDY    57  52  83 E5        30.19R

...NORTHERN KANSAS...

CITY           SKY/WX    TMP DP  RH WIND       PRES   REMARKS
GOODLAND       CLOUDY    53  53 100 SE13      30.05R FOG
HILL CITY      CLOUDY    54  52  93 S13       30.07R
NORTON         CLOUDY    54  50  87 SE8       30.08R
PHILLIPSBURG   CLOUDY    55  55 100 E8        30.09R
SMITH CENTER   CLOUDY    52  52 100 SE9       30.11F
HAYS           CLOUDY    54  46  76 SE14      30.09S
RUSSELL        CLOUDY    54  53  97 S16       30.09F
CONCORDIA      CLOUDY    54  52  93 SE5       30.14F
SALINA         CLOUDY    56  53  90 SE8       30.14F
TOPEKA         LGT RAIN  59  53  80 S6        30.19S



USA.gov is the U.S. government's official web portal to all federal, state and local government web resources and services.